Stations météo

réclame
Mon MeteoGroup
Fehmarn, Allemagne (10055): Température de l'air & dewpoint: 10.08.2018 03:00:00 - 16.08.2018 03:00:00 (CEST)Fehmarn, Allemagne (10055): Température de l'air 5cm & Température de l'air -5cm: 10.08.2018 03:00:00 - 16.08.2018 03:00:00 (CEST)Fehmarn, Allemagne (10055): Température de l'air -20cm & Température de l'air -100cm: 10.08.2018 03:00:00 - 16.08.2018 03:00:00 (CEST)Fehmarn, Allemagne (10055): Vitesse du vent & gusts: 10.08.2018 03:00:00 - 16.08.2018 03:00:00 (CEST)Fehmarn, Allemagne (10055): Direction du vent: 10.08.2018 03:00:00 - 16.08.2018 03:00:00 (CEST)Fehmarn, Allemagne (10055): reduced air pressure: 10.08.2018 03:00:00 - 16.08.2018 03:00:00 (CEST)Fehmarn, Allemagne (10055): visibility: 10.08.2018 03:00:00 - 16.08.2018 03:00:00 (CEST)Fehmarn, Allemagne (10055): Ensoleillement: 10.08.2018 03:00:00 - 16.08.2018 03:00:00 (CEST)Fehmarn, Allemagne (10055): Quantités de précipitations: 10.08.2018 03:00:00 - 16.08.2018 03:00:00 (CEST)
Date & Time tt [°C] td [°C] tt 5cm [°C] tt -5cm [°C] tt -20cm [°C] tt -100cm [°C] ff [km/h] ff [knt] fx [km/h] fx [knt] dd ppp [hPa] vv [km] sd [min] rr [mm]
16.08.2018 03:00:00 18,6 16,1 17,5 19,5 20,4 20,2 10 5 18 10 S 1017,2 9 0 0,0
16.08.2018 02:00:00 18,4 16,1 17,5 19,6 20,6 20,2 9 5 14 8 SSE 1017,4 9 0 0,0
16.08.2018 01:00:00 18,6 16,4 17,8 20,4 20,9 20,2 5 3 10 5 S 1017,7 11 0 0,0
16.08.2018 00:00:00 19,2 16,9 18,1 20,9 21,2 20,2 6 3 9 5 SSE 1017,6 16 0 0,0
15.08.2018 23:00:00 20,5 17,0 20,1 21,5 21,4 20,3 7 4 16 9 WSW 1017,7 19 0 0,0
15.08.2018 22:00:00 20,6 17,2 20,2 21,8 21,7 20,3 16 8 21 11 W 1017,8 25 0 0,0
15.08.2018 21:00:00 20,8 17,3 20,4 22,8 21,9 20,3 19 10 28 15 W 1017,5 31 0 0,0
15.08.2018 20:00:00 21,1 17,0 21,2 23,8 22,1 20,3 24 13 31 17 W 1017,2 31 0 0,0
15.08.2018 19:00:00 21,3 16,9 22,0 25,5 22,1 20,3 17 9 29 15 W 1017,1 25 11 0,0
15.08.2018 18:00:00 22,1 16,2 24,4 27,3 21,9 20,3 14 7 18 10 WSW 1017,0 24 48 0,0
15.08.2018 17:00:00 22,0 16,9 24,3 28,1 21,5 20,3 16 8 27 15 W 1017,0 14 44 0,0
15.08.2018 16:00:00 21,8 16,5 23,5 28,1 21,0 20,3 17 9 29 15 WSW 1017,1 31 31 0,0
15.08.2018 15:00:00 22,5 15,8 25,9 29,2 20,3 20,3 16 8 25 13 WSW 1016,9 17 60 0,0
15.08.2018 14:00:00 22,0 15,9 25,6 27,3 19,8 20,3 21 11 25 13 WSW 1016,8 18 22 0,0
15.08.2018 13:00:00 20,3 15,4 22,8 25,6 19,2 20,3 14 8 29 15 W 1016,7 47 1 0,0
15.08.2018 12:00:00 20,2 15,9 23,3 25,2 18,7 20,3 26 14 35 19 W 1016,6 34 48 0,0
15.08.2018 11:00:00 19,6 16,0 21,4 22,8 18,3 20,3 26 14 35 19 W 1016,4 28 33 0,0
15.08.2018 10:00:00 18,9 15,6 21,3 19,7 18,1 20,3 24 13 40 21 WSW 1015,9 29 5 0,0
15.08.2018 09:00:00 18,3 15,5 18,7 18,9 18,1 20,4 28 15 36 19 W 1015,3 46 0 0,0
15.08.2018 08:00:00 18,4 15,3 18,4 18,0 18,1 20,4 23 13 33 18 W 1015,0 50 1 0,0
15.08.2018 07:00:00 18,5 14,5 17,8 17,4 18,3 20,4 29 16 39 21 WNW 1014,6 53 2 0,0
15.08.2018 06:00:00 18,2 14,1 17,7 17,6 18,4 20,4 32 17 45 24 WNW 1014,3 64 0 0,0
15.08.2018 05:00:00 18,3 14,4 17,9 17,6 18,6 20,4 37 20 47 25 WNW 1013,9 44 0 0,0
15.08.2018 04:00:00 18,4 14,9 17,9 17,9 18,8 20,4 39 21 49 26 WNW 1013,8 49 0 0,0
15.08.2018 03:00:00 18,6 15,7 18,2 18,5 18,9 20,4 40 21 50 27 WNW 1013,4 31 0 0,0
15.08.2018 02:00:00 19,2 16,9 18,9 18,8 19,0 20,4 42 23 53 28 WNW 1012,8 27 0 0,0
15.08.2018 01:00:00 19,2 17,1 19,0 18,9 19,2 20,4 34 18 42 23 W 1012,5 22 0 0,0
15.08.2018 00:00:00 20,0 16,4 19,6 18,9 19,4 20,4 30 16 39 21 W 1012,1 18 0 0,0
14.08.2018 23:00:00 20,0 16,0 19,3 19,1 19,6 20,5 31 17 36 20 WNW 1011,7 26 0 0,0
14.08.2018 22:00:00 20,1 16,5 19,2 19,2 19,8 20,5 26 14 33 18 WNW 1011,3 27 0 0,0
14.08.2018 21:00:00 20,0 16,7 19,3 19,9 20,1 20,5 21 12 31 17 NW 1010,9 29 3 0,0
14.08.2018 20:00:00 20,1 16,5 20,1 21,1 20,3 20,5 27 14 36 19 NW 1010,1 29 13 0,0
14.08.2018 19:00:00 20,1 16,8 20,3 21,8 20,4 20,5 29 16 39 21 NW 1009,7 20 0 0,0
14.08.2018 18:00:00 20,6 16,8 21,0 22,9 20,4 20,5 24 13 30 16 WNW 1009,1 26 2 0,0
14.08.2018 17:00:00 20,3 17,0 21,0 23,7 20,3 20,5 19 10 34 18 WNW 1008,7 17 4 0,0
14.08.2018 16:00:00 21,2 17,1 23,5 25,0 20,0 20,6 24 13 30 16 WNW 1008,2 10 17 0,0
14.08.2018 15:00:00 21,1 17,2 24,8 26,6 19,4 20,6 21 11 37 20 WNW 1007,8 7 45 0,0
14.08.2018 14:00:00 21,9 16,5 24,5 26,4 18,8 20,6 31 17 39 21 W 1007,5 8 59 0,0
14.08.2018 13:00:00 21,9 17,3 25,5 24,1 18,3 20,6 30 16 41 22 W 1007,2 8 51 0,0
14.08.2018 12:00:00 20,6 17,0 22,7 21,8 18,0 20,6 34 18 44 24 W 1006,8 14 34 0,0
14.08.2018 11:00:00 19,8 16,9 21,1 20,2 17,8 20,6 32 18 42 23 WSW 1006,4 11 9 0,0
14.08.2018 10:00:00 18,7 16,7 18,8 18,6 17,7 20,6 26 14 39 21 WSW 1006,0 14 0 0,0
14.08.2018 09:00:00 18,1 16,7 17,7 17,9 17,7 20,6 21 11 38 21 WSW 1005,7 10 0 0,3
14.08.2018 08:00:00 18,1 15,9 18,3 17,6 17,8 20,7 23 13 34 18 SW 1005,4 10 0 0,1
14.08.2018 07:00:00 18,0 16,5 17,3 17,4 17,8 20,7 20 11 32 18 SW 1005,2 6 0 0,0
14.08.2018 06:00:00 18,0 16,1 17,4 17,2 17,9 20,7 18 10 29 15 SW 1005,1 5 0 0,0
14.08.2018 05:00:00 17,8 16,0 17,5 17,4 18,0 20,7 21 11 34 18 WSW 1005,0 4,9 0 0,0
14.08.2018 04:00:00 17,6 16,3 17,2 17,4 18,1 20,7 18 10 28 15 SW 1005,0 5 0 0,0
14.08.2018 03:00:00 18,2 16,1 17,2 17,5 18,3 20,7 19 10 27 15 WSW 1005,1 11 0 0,0
14.08.2018 02:00:00 18,6 16,5 17,4 17,8 18,4 20,8 16 9 24 13 SW 1005,3 20 0 0,0
14.08.2018 01:00:00 18,7 16,9 17,7 18,2 18,5 20,8 9 5 20 11 S 1005,3 34 0 0,2
14.08.2018 00:00:00 18,9 16,6 17,6 18,3 18,6 20,8 14 8 22 12 SSE 1005,1 9 0 0,1
13.08.2018 23:00:00 19,7 15,8 19,2 18,5 18,7 20,8 9 5 16 9 SE 1005,2 58 0 0,0
13.08.2018 22:00:00 19,3 16,5 18,8 18,7 18,9 20,8 10 5 18 10 SE 1005,3 58 0 0,0
13.08.2018 21:00:00 19,8 16,2 19,2 18,9 19,0 20,8 14 7 17 9 E 1005,0 68 0 0,0
13.08.2018 20:00:00 19,6 15,7 18,7 19,3 19,1 20,9 6 4 17 9 E 1005,2 61 0 0,1
13.08.2018 19:00:00 21,1 15,8 18,8 19,9 19,2 20,9 11 6 25 13 SSE 1005,8 17 0 0,2
13.08.2018 18:00:00 20,6 17,3 20,0 20,4 19,2 20,9 18 10 32 17 E 1006,0 30 0 0,0
13.08.2018 17:00:00 21,0 17,1 21,2 21,3 19,2 20,9 26 14 36 19 E 1005,6 40 0 0,0
13.08.2018 16:00:00 21,3 16,3 21,8 21,8 19,1 20,9 20 11 29 16 E 1006,2 50 0 0,0
13.08.2018 15:00:00 21,0 15,5 21,7 21,8 19,0 21,0 21 11 32 17 E 1006,8 50 0 0,0
13.08.2018 14:00:00 21,1 16,5 21,9 22,4 18,7 21,0 22 12 32 17 E 1007,0 18 2 0,0
13.08.2018 13:00:00 21,5 15,8 22,9 23,6 18,2 21,0 21 11 29 16 E 1007,4 19 20 0,0
13.08.2018 12:00:00 21,3 14,9 23,3 22,2 17,8 21,0 19 10 24 13 E 1007,8 21 7 0,0
13.08.2018 11:00:00 20,6 15,0 21,9 20,4 17,5 21,0 12 6 17 9 E 1008,0 21 0 0,0
13.08.2018 10:00:00 19,3 15,2 19,4 18,5 17,4 21,1 8 4 16 9 ESE 1008,0 20 0 0,0
13.08.2018 09:00:00 18,6 15,7 17,5 17,6 17,4 21,1 12 7 21 11 SE 1008,0 19 0 0,0
13.08.2018 08:00:00 17,8 15,3 16,8 17,1 17,4 21,1 12 6 18 10 SE 1008,0 15 0 0,0
13.08.2018 07:00:00 17,3 14,8 16,2 16,7 17,4 21,1 11 6 16 9 SE 1008,2 15 0 0,0
13.08.2018 06:00:00 17,0 15,0 15,9 16,6 17,5 21,2 10 5 16 9 ESE 1008,5 11 0 0,0
13.08.2018 05:00:00 17,3 15,1 15,9 16,7 17,6 21,2 10 5 16 9 SE 1009,1 13 0 0,0
13.08.2018 04:00:00 17,3 15,3 16,1 16,9 17,7 21,2 9 5 17 9 SE 1009,3 11 0 0,0
13.08.2018 03:00:00 17,3 15,6 16,3 17,0 17,7 21,2 11 6 14 8 SE 1009,7 11 0 0,3
13.08.2018 02:00:00 17,1 14,8 16,1 17,2 17,8 21,2 3 2 8 4 E 1010,4 13 0 0,1
13.08.2018 01:00:00 16,9 15,2 16,0 17,2 17,9 21,3 6 3 12 6 E 1010,5 13 0 0,5
13.08.2018 00:00:00 17,6 15,0 16,1 17,2 18,0 21,3 8 4 12 6 S 1010,9 8 0 0,5
12.08.2018 23:00:00 17,9 14,3 15,9 17,1 18,1 21,3 8 5 24 13 S 1011,1 13 0 0,4
12.08.2018 22:00:00 17,9 14,2 16,1 17,2 18,3 21,3 11 6 20 11 SSE 1011,4 17 0 0,0
12.08.2018 21:00:00 16,4 14,2 15,5 17,6 18,4 21,4 10 5 15 8 SE 1011,6 9 0 0,1
12.08.2018 20:00:00 16,0 14,7 15,8 18,3 18,5 21,4 8 4 10 5 ESE 1012,1 4,3 0 0,2
12.08.2018 19:00:00 16,2 14,6 15,9 18,8 18,6 21,4 6 3 8 5 E 1012,8 3,6 0 0,5
12.08.2018 18:00:00 16,9 12,9 15,8 19,0 18,6 21,4 3 1 12 7 SSE 1013,6 6 0 0,2
12.08.2018 17:00:00 17,1 12,7 16,2 19,5 18,6 21,5 8 4 40 22 WSW 1014,2 10 0 0,0
12.08.2018 16:00:00 19,1 10,4 19,6 20,7 18,5 21,5 23 12 48 26 SW 1014,7 28 0 0,0
12.08.2018 15:00:00 19,4 8,3 21,1 21,2 18,2 21,5 19 11 28 15 WSW 1015,1 27 0 0,0
12.08.2018 14:00:00 18,8 9,0 21,3 20,8 17,9 21,5 10 5 24 13 WSW 1015,6 43 0 0,0
12.08.2018 13:00:00 19,2 10,5 22,7 21,4 17,6 21,6 20 11 30 16 WSW 1016,1 20 23 0,0
12.08.2018 12:00:00 18,5 10,2 21,7 19,7 17,3 21,6 21 11 35 19 WSW 1016,4 19 30 0,0
12.08.2018 11:00:00 17,4 10,3 19,4 18,4 17,0 21,6 27 14 39 21 WSW 1016,5 21 38 0,0
12.08.2018 10:00:00 16,9 11,1 18,6 17,3 16,9 21,6 22 12 37 20 WSW 1016,4 23 17 0,0
12.08.2018 09:00:00 16,6 13,1 17,4 16,5 16,8 21,6 24 13 36 19 WSW 1016,8 29 0 0,0
12.08.2018 08:00:00 16,9 13,4 16,9 15,8 16,8 21,7 27 15 37 20 WSW 1016,8 33 1 0,0
12.08.2018 07:00:00 16,1 13,1 15,5 15,1 16,9 21,7 24 13 37 20 WSW 1016,8 30 0 0,0
12.08.2018 06:00:00 16,3 12,9 15,6 14,8 17,0 21,7 24 13 40 22 WSW 1016,8 31 0 0,0
12.08.2018 05:00:00 16,5 12,0 15,8 14,8 17,1 21,7 29 16 42 23 W 1016,8 32 0 0,0
12.08.2018 04:00:00 16,6 12,4 15,7 14,7 17,2 21,7 36 19 51 28 W 1017,2 59 0 0,0
12.08.2018 03:00:00 17,0 12,9 16,2 15,0 17,4 21,7 36 20 52 28 W 1017,3 56 0 0,0
12.08.2018 02:00:00 17,2 12,1 16,5 15,0 17,5 21,8 41 22 54 29 W 1017,3 47 0 0,0
12.08.2018 01:00:00 17,4 12,0 16,5 14,9 17,7 21,8 44 24 59 32 W 1017,5 41 0 0,0
12.08.2018 00:00:00 17,4 12,1 16,7 15,3 17,9 21,8 45 25 58 32 W 1017,4 42 0 0,0
11.08.2018 23:00:00 17,5 11,4 16,7 15,3 18,1 21,8 43 23 61 33 W 1017,6 38 0 0,0
11.08.2018 22:00:00 17,6 12,0 16,7 15,3 18,4 21,8 50 27 64 35 W 1017,3 35 0 0,0
11.08.2018 21:00:00 17,6 10,9 16,7 15,8 18,6 21,9 55 30 66 35 WNW 1016,8 34 10 0,0
11.08.2018 20:00:00 17,6 12,2 17,1 16,4 18,9 21,9 44 24 69 38 WNW 1016,4 18 20 0,7
11.08.2018 19:00:00 17,9 11,9 17,6 17,0 19,1 21,9 55 30 77 41 WNW 1016,0 19 9 0,0
11.08.2018 18:00:00 17,7 12,7 17,7 18,2 19,3 21,9 61 33 84 45 W 1015,1 9 32 0,5
11.08.2018 17:00:00 16,0 13,4 15,0 18,0 19,4 21,9 62 33 80 43 W 1014,7 9 19 0,2
11.08.2018 16:00:00 15,6 11,9 14,5 18,7 19,5 21,9 41 22 61 33 WSW 1015,1 14 10 0,0
11.08.2018 15:00:00 15,9 12,0 16,4 19,2 19,5 22,0 44 24 62 34 WSW 1015,0 14 17 0,0
11.08.2018 14:00:00 15,4 11,7 15,0 19,7 19,5 22,0 32 17 64 35 SW 1015,3 24 7 4,7
11.08.2018 13:00:00 15,9 10,4 15,9 24,3 19,0 22,0 58 31 74 40 WSW 1015,3 25 43 0,0
11.08.2018 12:00:00 17,6 10,9 20,2 22,4 18,6 22,0 29 16 50 27 SW 1015,8 15 47 0,0
11.08.2018 11:00:00 16,9 11,9 20,0 19,4 18,4 22,0 22 12 39 21 SW 1016,0 28 39 0,0
11.08.2018 10:00:00 15,4 12,0 15,7 17,2 18,4 22,0 23 13 45 25 SSW 1016,4 27 4 0,4
11.08.2018 09:00:00 14,9 11,0 14,0 16,7 18,5 22,0 28 15 52 28 SW 1016,3 17 0 0,0
11.08.2018 08:00:00 16,6 10,9 16,5 16,9 18,5 22,0 35 19 49 26 WSW 1016,0 28 2 0,0
11.08.2018 07:00:00 17,2 11,2 17,2 16,2 18,7 22,0 24 13 37 20 WSW 1015,8 23 8 0,0
11.08.2018 06:00:00 17,3 10,1 15,8 15,7 18,9 22,0 14 8 26 14 S 1015,6 34 0 0,0
11.08.2018 05:00:00 17,2 12,2 15,7 15,8 19,1 22,1 18 10 26 14 SSE 1016,2 31 0 0,0
11.08.2018 04:00:00 16,0 12,2 14,2 15,7 19,4 22,1 14 8 22 12 SE 1017,1 33 0 0,0
11.08.2018 03:00:00 14,6 11,5 13,0 15,8 19,7 22,1 13 7 18 10 SE 1017,7 34 0 0,0
11.08.2018 02:00:00 14,1 10,4 12,4 16,1 20,1 22,1 9 5 16 8 SE 1018,7 60 0 0,0
11.08.2018 01:00:00 14,1 10,5 12,4 16,7 20,4 22,1 8 5 12 6 SSE 1019,4 60 0 0,0
11.08.2018 00:00:00 14,3 10,7 12,8 17,3 20,8 22,1 9 5 14 7 SSE 1019,7 68 0 0,0
10.08.2018 23:00:00 15,8 10,8 14,0 18,0 21,2 22,1 9 5 27 15 S 1020,0 66 0 0,0
10.08.2018 22:00:00 17,6 11,2 16,1 18,7 21,5 22,1 16 9 28 15 SW 1020,2 70 0 0,0
10.08.2018 21:00:00 18,1 10,2 17,0 19,8 21,8 22,1 19 10 29 16 SW 1020,0 70 1 0,0
10.08.2018 20:00:00 17,4 10,9 17,2 20,6 22,1 22,1 13 7 51 27 SSW 1019,8 66 2 0,0
10.08.2018 19:00:00 19,0 12,3 19,7 22,3 22,2 22,1 34 18 45 24 W 1020,1 18 27 0,2
10.08.2018 18:00:00 19,4 12,0 20,8 25,0 22,0 22,1 23 12 35 19 W 1020,2 19 45 0,0
10.08.2018 17:00:00 19,0 11,8 20,2 24,2 21,8 22,1 29 16 51 28 WSW 1020,1 44 39 0,0
10.08.2018 16:00:00 19,3 12,3 20,9 24,6 21,6 22,1 41 22 53 29 W 1019,7 13 29 0,0
10.08.2018 15:00:00 18,3 11,6 19,4 24,1 21,3 22,1 53 29 70 38 W 1019,4 33 21 0,0
10.08.2018 14:00:00 18,9 11,7 20,4 23,6 21,1 22,1 46 25 68 37 W 1018,8 13 33 0,0
10.08.2018 13:00:00 19,2 11,8 21,2 22,3 20,9 22,1 56 30 71 39 W 1017,9 9 31 0,0
10.08.2018 12:00:00 19,3 12,0 21,0 22,0 20,9 22,1 45 24 66 35 WSW 1016,9 12 31 0,0
10.08.2018 11:00:00 18,5 13,7 18,8 19,6 20,9 22,1 40 22 66 35 WSW 1015,9 25 19 0,0
10.08.2018 10:00:00 19,1 14,3 20,6 19,7 21,0 22,1 49 27 70 38 W 1014,7 15 38 0,0
10.08.2018 09:00:00 18,6 14,7 18,8 19,0 21,2 22,1 53 29 68 37 WSW 1013,2 31 17 0,0
10.08.2018 08:00:00 18,3 15,2 18,9 19,0 21,4 22,1 40 21 72 39 WSW 1011,8 18 48 0,0
10.08.2018 07:00:00 18,8 14,0 18,4 18,0 21,7 22,1 47 26 70 38 SW 1010,1 16 18 0,0
10.08.2018 06:00:00 18,9 14,2 17,9 18,1 22,2 22,1 42 23 75 41 SW 1009,5 70 0 0,0
10.08.2018 05:00:00 19,4 14,5 18,3 18,7 22,6 22,1 38 21 62 33 SW 1008,3 56 0 0,0
10.08.2018 04:00:00 19,9 14,4 18,6 19,4 23,0 22,1 36 19 59 32 SSW 1007,7 63 0 0,0
10.08.2018 03:00:00 20,8 17,0 19,5 20,5 23,4 22,1 26 14 53 28 SSW 1007,4 43 0 0,0

tt = Température de l'air
td = dewpoint
tt 5cm = Température de l'air 5cm
tt -5cm = Température de l'air -5cm
tt -20cm = Température de l'air -20cm
tt -100cm = Température de l'air -100cm
ff = Vitesse du vent
fx = gusts
dd = Direction du vent
ppp = reduced air pressure
vv = visibility
sd = Ensoleillement
rr = Quantités de précipitations

stations d'obs. à proximité